• In Uzbekistan
  • List of Countries
  • For 7 days
  • Water Temperature
  • Satellite Maps
  • Weather Map
  • Weather Widgets
  • user-avatar
    Login

    Hourly Weather Al-Chums

    Today, 19 January, Saturday

    Time Temperature Precipitation Wind Pressure Humidity
    00:00 +5°C° 0 mm 0 mps 722 mmHg 62%
    01:00 +6°C° 0 mm 1 mps 722 mmHg 62%
    02:00 +5°C° 0 mm 1 mps 722 mmHg 63%
    03:00 +5°C° 0 mm 1 mps 722 mmHg 63%
    04:00 +5°C° 0 mm 1 mps 722 mmHg 63%
    05:00 +5°C° 0 mm 1 mps 722 mmHg 63%
    06:00 +5°C° 0 mm 1 mps 722 mmHg 61%
    07:00 +6°C° 0 mm 1 mps 722 mmHg 58%
    08:00 +7°C° 0 mm 1 mps 723 mmHg 56%
    09:00 +8°C° 0 mm 1 mps 723 mmHg 51%
    10:00 +9°C° 0 mm 1 mps 723 mmHg 46%
    11:00 +11°C° 0 mm 1 mps 723 mmHg 41%
    12:00 +11°C° 0 mm 1 mps 723 mmHg 38%
    13:00 +12°C° 0 mm 1 mps 722 mmHg 35%
    14:00 +13°C° 0 mm 1 mps 722 mmHg 32%
    15:00 +12°C° 0 mm 1 mps 722 mmHg 36%
    16:00 +11°C° 0 mm 1 mps 722 mmHg 40%
    17:00 +10°C° 0 mm 1 mps 722 mmHg 44%
    18:00 +10°C° 0 mm 1 mps 722 mmHg 46%
    19:00 +9°C° 0 mm 1 mps 722 mmHg 48%
    20:00 +9°C° 0 mm 1 mps 722 mmHg 50%
    21:00 +8°C° 0 mm 1 mps 722 mmHg 51%
    22:00 +8°C° 0 mm 1 mps 722 mmHg 52%
    23:00 +6°C° 0 mm 0 mps 722 mmHg 53%

    Tomorrow, 20 January, Sunday

    Time Temperature Precipitation Wind Pressure Humidity
    00:00 +7°C° 0 mm 1 mps 722 mmHg 53%
    01:00 +7°C° 0 mm 1 mps 722 mmHg 53%
    02:00 +7°C° 0 mm 1 mps 722 mmHg 54%
    03:00 +6°C° 0 mm 1 mps 722 mmHg 54%
    04:00 +6°C° 0 mm 1 mps 722 mmHg 55%
    05:00 +6°C° 0 mm 1 mps 721 mmHg 55%
    06:00 +6°C° 0 mm 1 mps 722 mmHg 54%
    07:00 +7°C° 0 mm 1 mps 722 mmHg 52%
    08:00 +8°C° 0 mm 1 mps 722 mmHg 51%
    09:00 +8°C° 0 mm 2 mps 722 mmHg 47%
    10:00 +9°C° 0 mm 2 mps 723 mmHg 43%
    11:00 +12°C° 0 mm 2 mps 723 mmHg 39%
    12:00 +11°C° 0 mm 3 mps 722 mmHg 38%
    13:00 +12°C° 0 mm 3 mps 721 mmHg 36%
    14:00 +13°C° 0 mm 3 mps 721 mmHg 35%
    15:00 +12°C° 0 mm 3 mps 721 mmHg 38%
    16:00 +11°C° 0 mm 3 mps 721 mmHg 41%
    17:00 +10°C° 0 mm 3 mps 721 mmHg 44%
    18:00 +9°C° 0 mm 3 mps 721 mmHg 46%
    19:00 +9°C° 0 mm 3 mps 721 mmHg 48%
    20:00 +8°C° 0 mm 3 mps 721 mmHg 49%
    21:00 +8°C° 0 mm 3 mps 721 mmHg 50%
    22:00 +8°C° 0 mm 3 mps 721 mmHg 51%
    23:00 +7°C° 0 mm 3 mps 720 mmHg 51%

    Day after tomorrow, 21 January, Monday

    Time Temperature Precipitation Wind Pressure Humidity
    00:00 +7°C° 0 mm 3 mps 720 mmHg 52%
    01:00 +7°C° 0 mm 2 mps 720 mmHg 54%
    02:00 +7°C° 0 mm 2 mps 720 mmHg 55%
    03:00 +7°C° 0 mm 2 mps 719 mmHg 56%
    04:00 +6°C° 0 mm 2 mps 719 mmHg 57%
    05:00 +6°C° 0 mm 2 mps 719 mmHg 58%
    06:00 +6°C° 0 mm 2 mps 719 mmHg 59%
    07:00 +7°C° 0 mm 2 mps 719 mmHg 59%
    08:00 +7°C° 0 mm 2 mps 720 mmHg 60%
    09:00 +8°C° 0 mm 2 mps 720 mmHg 57%
    10:00 +9°C° 0 mm 2 mps 720 mmHg 54%
    11:00 +10°C° 0 mm 2 mps 720 mmHg 51%
    12:00 +10°C° 0 mm 2 mps 719 mmHg 50%
    13:00 +11°C° 0 mm 3 mps 719 mmHg 49%
    14:00 +11°C° 0 mm 3 mps 719 mmHg 48%
    15:00 +10°C° 0 mm 3 mps 719 mmHg 52%
    16:00 +10°C° 0 mm 3 mps 719 mmHg 56%
    17:00 +9°C° 0 mm 3 mps 719 mmHg 61%
    18:00 +8°C° 0 mm 3 mps 719 mmHg 64%
    19:00 +7°C° 0 mm 2 mps 719 mmHg 68%
    20:00 +7°C° 0 mm 2 mps 720 mmHg 72%
    21:00 +6°C° 0 mm 2 mps 720 mmHg 73%
    22:00 +6°C° 0 mm 2 mps 720 mmHg 75%
    23:00 +6°C° 0 mm 1 mps 720 mmHg 77%

    22 January, Tuesday

    Time Temperature Precipitation Wind Pressure Humidity
    00:00 +6°C° 0 mm 1 mps 720 mmHg 79%
    01:00 +6°C° 0 mm 1 mps 720 mmHg 80%
    02:00 +5°C° 0 mm 1 mps 719 mmHg 82%
    03:00 +5°C° 0 mm 1 mps 719 mmHg 82%
    04:00 +5°C° 0 mm 1 mps 719 mmHg 83%
    05:00 +5°C° 0 mm 1 mps 719 mmHg 84%
    06:00 +5°C° 0 mm 1 mps 720 mmHg 81%
    07:00 +6°C° 0 mm 1 mps 720 mmHg 78%
    08:00 +6°C° 0 mm 1 mps 720 mmHg 74%
    09:00 +8°C° 0 mm 1 mps 720 mmHg 68%
    10:00 +9°C° 0 mm 1 mps 720 mmHg 61%
    11:00 +10°C° 0 mm 2 mps 720 mmHg 55%
    12:00 +12°C° 0 mm 2 mps 720 mmHg 53%
    13:00 +12°C° 0 mm 2 mps 720 mmHg 51%
    14:00 +13°C° 0 mm 2 mps 719 mmHg 48%
    15:00 +13°C° 0 mm 2 mps 719 mmHg 51%
    16:00 +12°C° 0 mm 2 mps 719 mmHg 54%
    17:00 +10°C° 0 mm 2 mps 719 mmHg 57%
    18:00 +10°C° 0 mm 2 mps 719 mmHg 59%
    19:00 +9°C° 0 mm 2 mps 719 mmHg 61%
    20:00 +9°C° 0 mm 1 mps 719 mmHg 63%
    21:00 +9°C° 0 mm 1 mps 719 mmHg 63%
    22:00 +9°C° 0 mm 1 mps 719 mmHg 64%
    23:00 +8°C° 0 mm 1 mps 719 mmHg 65%

    23 January, Wednesday

    Time Temperature Precipitation Wind Pressure Humidity
    00:00 +8°C° 0 mm 1 mps 719 mmHg 65%
    01:00 +8°C° 0 mm 1 mps 719 mmHg 65%
    02:00 +7°C° 0 mm 1 mps 718 mmHg 66%
    03:00 +7°C° 0 mm 1 mps 718 mmHg 66%
    04:00 +7°C° 0 mm 1 mps 718 mmHg 66%
    05:00 +7°C° 0 mm 1 mps 718 mmHg 67%
    06:00 +7°C° 0 mm 1 mps 719 mmHg 64%
    07:00 +8°C° 0 mm 1 mps 719 mmHg 62%
    08:00 +9°C° 0 mm 1 mps 719 mmHg 59%
    09:00 +10°C° 0 mm 1 mps 719 mmHg 55%
    10:00 +12°C° 0 mm 2 mps 720 mmHg 50%
    11:00 +13°C° 0 mm 2 mps 720 mmHg 46%
    12:00 +14°C° 0 mm 2 mps 719 mmHg 43%
    13:00 +14°C° 0 mm 2 mps 719 mmHg 41%
    14:00 +15°C° 0 mm 2 mps 718 mmHg 39%
    15:00 +14°C° 0 mm 2 mps 718 mmHg 41%
    16:00 +13°C° 0 mm 2 mps 718 mmHg 43%
    17:00 +12°C° 0 mm 3 mps 718 mmHg 45%
    18:00 +11°C° 0 mm 3 mps 718 mmHg 46%
    19:00 +10°C° 0 mm 3 mps 718 mmHg 47%
    20:00 +8°C° 0 mm 4 mps 718 mmHg 48%
    21:00 +8°C° 0 mm 4 mps 718 mmHg 49%
    22:00 +7°C° 0 mm 4 mps 718 mmHg 50%
    23:00 +7°C° 0 mm 4 mps 718 mmHg 51%

    24 January, Thursday

    Time Temperature Precipitation Wind Pressure Humidity
    00:00 +7°C° 0 mm 4 mps 717 mmHg 52%
    01:00 +6°C° 0 mm 4 mps 717 mmHg 52%
    02:00 +6°C° 0 mm 4 mps 717 mmHg 53%
    03:00 +6°C° 0 mm 4 mps 717 mmHg 55%
    04:00 +5°C° 0 mm 3 mps 716 mmHg 56%
    05:00 +5°C° 0 mm 3 mps 716 mmHg 58%
    06:00 +5°C° 0 mm 3 mps 716 mmHg 58%
    07:00 +7°C° 0 mm 3 mps 716 mmHg 58%
    08:00 +7°C° 0 mm 3 mps 716 mmHg 58%
    09:00 +9°C° 0 mm 3 mps 716 mmHg 53%
    10:00 +11°C° 0 mm 3 mps 716 mmHg 47%
    11:00 +12°C° 0 mm 3 mps 716 mmHg 42%
    12:00 +13°C° 0 mm 4 mps 715 mmHg 39%
    13:00 +15°C° 0 mm 4 mps 715 mmHg 37%
    14:00 +17°C° 0 mm 4 mps 714 mmHg 34%
    15:00 +15°C° 0 mm 4 mps 714 mmHg 36%
    16:00 +14°C° 0 mm 4 mps 714 mmHg 37%
    17:00 +14°C° 0 mm 4 mps 714 mmHg 39%
    18:00 +13°C° 0 mm 3 mps 714 mmHg 42%
    19:00 +12°C° 0 mm 3 mps 714 mmHg 45%
    20:00 +12°C° 0 mm 2 mps 714 mmHg 48%
    21:00 +10°C° 0 mm 2 mps 714 mmHg 51%
    22:00 +9°C° 0 mm 2 mps 714 mmHg 54%
    23:00 +8°C° 0 mm 2 mps 715 mmHg 57%
    Show more